Regional Weather Roundup
Issued by NWS

Home | Current Version | Previous Version | Graphics & Text | Print | Product List | Glossary On
Versions: 1 2 3 4 5 6 7 8 9 10 11 12 13 14 15 16 17 18 19 20 21 22 23 24 25 26 27 28 29 30 31 32 33 34 35 36 37 38 39 40 41 42 43 44 45 46 47 48 49 50
000
ASUS45 KCYS 021210
RWRWY

WYOMING REGIONAL WEATHER ROUNDUP
NATIONAL WEATHER SERVICE CHEYENNE WY
600 AM MDT SAT MAY 02 2015

NOTE:  "FAIR" INDICATES FEW OR NO CLOUDS BELOW 12,000 FEET
WITH NO SIGNIFICANT WEATHER AND/OR OBSTRUCTIONS TO VISIBILITY.

WYZ001-021300-
YELLOWSTONE NATIONAL PARK

CITY           SKY/WX    TMP DP  RH WIND       PRES   REMARKS
LK YELLOWSTONE   N/A     25  21  85 CALM      30.05S
6HR MIN TEMP:  25; 6HR MAX TEMP:  29;

W YELLOWSTONE  NOT AVBL

$$
WYZ002>013-054>058-071-098>099-021300-
NORTHERN WYOMING

CITY           SKY/WX    TMP DP  RH WIND       PRES   REMARKS
JACKSON        FAIR      30  27  86 NE5       30.02S WCI  25
CODY           FAIR      46  25  42 S7        29.88S
GREYBULL       FAIR      44  28  53 N5        29.85S
6HR MIN TEMP:  44; 6HR MAX TEMP:  58;

WORLAND        FAIR      39  31  72 SW3       29.85F
6HR MIN TEMP:  39; 6HR MAX TEMP:  50;

SHERIDAN       FAIR      50  29  44 N6        29.80S
6HR MIN TEMP:  40; 6HR MAX TEMP:  58;

BUFFALO        FAIR      55  21  26 NW5       29.85S
6HR MIN TEMP:  48; 6HR MAX TEMP:  61;

GILLETTE       FAIR      53  35  50 SW17      29.82S
6HR MIN TEMP:  50; 6HR MAX TEMP:  58;

HULETT         FAIR      55  43  62 SW6       29.84S
NEWCASTLE      FAIR      43  37  81 CALM      29.87S

$$
WYZ014>020-022>026-101>103-021300-
CENTRAL WYOMING

CITY           SKY/WX    TMP DP  RH WIND       PRES   REMARKS
BIG PINEY      FAIR      31  23  72 CALM      30.07S
6HR MIN TEMP:  29; 6HR MAX TEMP:  39;

PINEDALE       PTSUNNY   28  23  80 NW5       30.08S WCI  23
DUBOIS         FAIR      36  21  55 NW8       30.00S WCI  29
LANDER         FAIR      53  22  29 CALM      29.94S
6HR MIN TEMP:  43; 6HR MAX TEMP:  57;

RIVERTON       FAIR      44  22  41 NW9       29.95S
6HR MIN TEMP:  43; 6HR MAX TEMP:  53;

CASPER         FAIR      42  31  64 SW10      29.93F
6HR MIN TEMP:  34; 6HR MAX TEMP:  46;

DOUGLAS        FAIR      39  38  96 NW6       29.93R FOG     WCI  35
6HR MIN TEMP:  38; 6HR MAX TEMP:  50;


$$
WYZ021-027>030-104>119-021300-
SOUTHERN WYOMING

CITY           SKY/WX    TMP DP  RH WIND       PRES   REMARKS
EVANSTON       FAIR      47  31  53 SE7       30.07F
6HR MIN TEMP:  46; 6HR MAX TEMP:  52;

FORT BRIDGER   SUNNY     46  32  57 W9        30.09F
ROCK SPRINGS   FAIR      44  30  57 SW6       30.06S
6HR MIN TEMP:  44; 6HR MAX TEMP:  52;

DIXON          CLOUDY    39  35  86 E5        30.10F
RAWLINS        FAIR      45  30  55 SW6       30.05S
6HR MIN TEMP:  45; 6HR MAX TEMP:  54;

SARATOGA       FAIR      41  32  70 SE7       30.08S
LARAMIE        FAIR      39  32  76 SW10      30.06S WCI  32
6HR MIN TEMP:  37; 6HR MAX TEMP:  47;

CHEYENNE       FAIR      49  35  58 W15       30.00S
6HR MIN TEMP:  42; 6HR MAX TEMP:  50;

TORRINGTON     FAIR      44  42  93 E3        29.89F
6HR MIN TEMP:  43; 6HR MAX TEMP:  54;

PINE BLUFFS    FOG       39  39 100 CALM      29.98S VSB 1/2

$$


USA.gov is the U.S. government's official web portal to all federal, state and local government web resources and services.